Location: Newark
(41.1500°S, 172.6000°E)
Time: 18:28:34
(UTC+00:00)

N. Korean satellite - Visible Passes

Search period start: 14 October 2019 00:00
Search period end: 24 October 2019 00:00
Orbit: 455 x 508 km, 97.2° (Epoch: 14 October)

Date Brightness Start Highest point End Pass type
(mag) Time Alt. Az. Time Alt. Az. Time Alt. Az.
14 Oct 8.4 17:10:46 10° NE 17:14:18 40° ESE 17:17:54 10° S visible
15 Oct 10.7 07:46:18 10° SW 07:47:03 10° WSW 07:47:47 10° WSW visible
15 Oct 9.8 16:46:20 10° ENE 16:49:12 21° ESE 16:52:05 10° SSE visible
16 Oct 9.9 07:19:18 10° SSW 07:22:01 20° WSW 07:24:41 10° WNW visible
16 Oct 10.6 16:23:01 10° E 16:24:11 11° ESE 16:25:19 10° SE visible
18 Oct 8.9 17:03:12 10° NE 17:06:36 33° ESE 17:10:02 10° S visible
19 Oct 10.4 07:37:43 10° SW 07:39:21 13° WSW 07:40:57 10° W visible
19 Oct 10.1 16:38:58 10° ENE 16:41:30 17° ESE 16:44:02 10° SSE visible
22 Oct 9.3 16:55:39 10° NE 16:58:51 27° ESE 17:02:03 10° SSE visible
23 Oct 10.2 07:29:29 10° SSW 07:31:35 15° WSW 07:33:40 10° WNW visible
23 Oct 10.3 16:31:42 10° E 16:33:46 14° ESE 16:35:50 10° SSE visible
